TimeCST,TemperatureF,Dew PointF,Humidity,Sea Level PressureIn,VisibilityMPH,Wind Direction,Wind SpeedMPH,Gust SpeedMPH,PrecipitationIn,Events,Conditions,WindDirDegrees,DateUTC
12:53 AM,59.0,45.0,60,29.99,10.0,South,11.5,19.6,N/A,,Clear,190,2012-11-11 06:53:00
1:53 AM,60.1,44.1,55,30.00,10.0,South,15.0,27.6,N/A,,Clear,190,2012-11-11 07:53:00
2:53 AM,57.9,44.1,60,30.01,10.0,South,15.0,-,N/A,,Clear,190,2012-11-11 08:53:00
3:53 AM,55.0,45.0,69,30.02,10.0,South,10.4,-,N/A,,Clear,180,2012-11-11 09:53:00
4:53 AM,54.0,45.0,72,30.02,10.0,South,12.7,-,N/A,,Clear,180,2012-11-11 10:53:00
5:53 AM,55.0,45.0,69,30.01,10.0,South,12.7,19.6,N/A,,Clear,180,2012-11-11 11:53:00
6:53 AM,55.0,45.0,69,30.01,10.0,South,15.0,-,N/A,,Clear,180,2012-11-11 12:53:00
8:53 AM,62.1,46.9,58,29.99,10.0,South,17.3,31.1,N/A,,Clear,180,2012-11-11 14:53:00
9:53 AM,64.0,48.9,58,29.98,10.0,South,20.7,31.1,N/A,,Clear,180,2012-11-11 15:53:00
10:53 AM,66.0,50.0,56,29.94,10.0,South,23.0,36.8,N/A,,Mostly Cloudy,180,2012-11-11 16:53:00
11:53 AM,66.9,50.0,54,29.91,10.0,South,25.3,39.1,N/A,,Overcast,190,2012-11-11 17:53:00
12:53 PM,69.1,48.9,49,29.89,10.0,South,28.8,39.1,N/A,,Mostly Cloudy,190,2012-11-11 18:53:00
1:53 PM,68.0,48.9,50,29.86,10.0,South,27.6,46.0,N/A,,Mostly Cloudy,180,2012-11-11 19:53:00
2:53 PM,68.0,50.0,52,29.84,10.0,South,24.2,44.9,N/A,,Partly Cloudy,180,2012-11-11 20:53:00
3:53 PM,66.0,48.9,54,29.85,10.0,South,23.0,35.7,N/A,,Overcast,180,2012-11-11 21:53:00
4:53 PM,64.9,48.9,56,29.83,10.0,South,20.7,34.5,N/A,,Overcast,170,2012-11-11 22:53:00
5:53 PM,64.0,48.0,56,29.86,10.0,South,17.3,28.8,N/A,,Overcast,180,2012-11-11 23:53:00
7:53 PM,60.1,51.1,72,29.90,10.0,SSW,17.3,28.8,0.01,Rain,Light Rain,200,2012-11-12 01:53:00
8:53 PM,57.0,53.1,87,29.89,10.0,SSW,12.7,-,0.02,,Overcast,200,2012-11-12 02:53:00
9:11 PM,55.4,53.6,94,29.89,6.0,SSW,13.8,-,N/A,,Overcast,210,2012-11-12 03:11:00
9:23 PM,55.4,53.6,94,29.90,6.0,SW,15.0,21.9,N/A,,Overcast,230,2012-11-12 03:23:00
9:48 PM,53.6,51.8,94,29.91,4.0,West,16.1,-,0.01,Rain,Light Rain,260,2012-11-12 03:48:00
9:53 PM,52.0,51.1,97,29.91,4.0,WSW,11.5,-,0.02,Rain,Light Rain,250,2012-11-12 03:53:00
10:21 PM,51.8,50.0,94,29.92,5.0,WSW,11.5,-,0.00,,Overcast,250,2012-11-12 04:21:00
10:53 PM,52.0,51.1,97,29.94,6.0,SW,10.4,-,0.02,,Overcast,220,2012-11-12 04:53:00
11:10 PM,51.8,51.8,100,29.93,4.0,SW,8.1,-,N/A,,Overcast,220,2012-11-12 05:10:00
11:24 PM,51.8,50.0,94,29.93,7.0,SSW,10.4,-,0.00,Rain,Light Rain,210,2012-11-12 05:24:00
11:34 PM,51.8,50.0,94,29.92,8.0,SSW,9.2,-,0.01,Rain,Light Rain,210,2012-11-12 05:34:00
11:41 PM,51.8,50.0,94,29.92,9.0,SW,10.4,-,0.01,,Overcast,220,2012-11-12 05:41:00
11:53 PM,51.1,50.0,96,29.92,10.0,SW,11.5,-,0.01,,Overcast,220,2012-11-12 05:53:00